Regional Weather Roundup
Issued by NWS

Home | Current Version | Previous Version | Graphics & Text | Print | Product List | Glossary On
Versions: 1 2 3 4 5 6 7 8 9 10 11 12 13 14 15 16 17 18 19 20 21 22 23 24 25 26 27 28 29 30 31 32 33 34 35 36 37 38 39 40 41 42 43 44 45 46 47 48 49 50
000
ASUS45 KABQ 182110
RWRNM
WEATHER ROUNDUP FOR NEW MEXICO
NATIONAL WEATHER SERVICE ALBUQUERQUE NM
300 PM MDT SAT APR 18 2015

NOTE: "FAIR" MEANS FEW OR NO CLOUDS BELOW 12,000 FEET AGL WITH NO
       SIGNIFICANT WEATHER OR OBSTRUCTIONS TO VISION.

      THIS PRODUCT IS RELEASED AS TWO VERSIONS.  ONE VERSION NEAR
      THE TOP OF THE HOUR CONTAINING PRELIMINARY DATA FROM ALBUQUERQUE
      AND OTHER STATIONS.  A FINAL VERSION WITH ADDITIONAL DATA IS
      ISSUED ABOUT 10 MINUTES AFTER THE HOUR.

NMZ501-503-504-510>518-182200-
NORTHWEST PLATEAU/NORTHCENTRAL MOUNTAINS

CITY           SKY/WX    TMP DP  RH WIND       PRES   REMARKS
FARMINGTON     PTSUNNY   53  34  48 NW18G25   29.98F
LOS ALAMOS     MOSUNNY   45  34  66 SE7       29.97F
SANTA FE       MOSUNNY   51  30  44 W20G26    29.93F
ANGEL FIRE     FAIR      41  25  52 W18G30    29.95R

$$
NMZ402-403-502-505>509-182200-
WESTCENTRAL MOUNTAINS/SOUTHWEST MOUNTAINS

CITY           SKY/WX    TMP DP  RH WIND       PRES   REMARKS
GALLUP         PTSUNNY   57  24  28 NW18G29   30.02S
GRANTS         MOSUNNY   61  19  20 NW24G36   29.98S
SILVER CITY      N/A     66  21  18 W23G29    30.00F

$$
NMZ407-409-411-412-182200-
SOUTHERN DESERTS

CITY           SKY/WX    TMP DP  RH WIND       PRES   REMARKS
LORDSBURG      FAIR      72  21  15 W24G30    29.97F
DEMING         SUNNY     73  22  14 W12G28    29.95F
LAS CRUCES     SUNNY     73  20  13 W14G20    29.94F
HOLLOMAN AFB   PTSUNNY   73  23  15 NW16G22   29.89F
ALAMOGORDO     PTSUNNY   70  23  17 NW6       29.91F
T OR C         CLOUDY    70  23  17 NW17G31   29.91F

$$
NMZ519>523-182200-
CENTRAL VALLEYS/CENTRAL HIGHLANDS

CITY           SKY/WX    TMP DP  RH WIND       PRES   REMARKS
ALBUQUERQUE    PTSUNNY   61  26  26 N12G20    29.95F
DOUBLE EAGLE   MOSUNNY   57  27  30 NW15G32   29.96F
MORIARTY ARPT  FAIR      58  18  20 NW16G29   29.95F
CLINES CORNERS SUNNY     54  17  23 NW31G38   29.91F
BELEN          FAIR      64  21  19 N10G17    29.93F
SOCORRO        PTSUNNY   69  18  14 NW20G25   29.90F

$$
NMZ524>526-539-540-182200-
SOUTHCENTRAL MOUNTAINS

CITY           SKY/WX    TMP DP  RH WIND       PRES   REMARKS
RUIDOSO        MOSUNNY   59  19  21 W28G33    29.96F

$$
NMZ527>531-182200-
NORTHEAST HIGHLANDS/NORTHEAST PLAINS

CITY           SKY/WX    TMP DP  RH WIND       PRES   REMARKS
LAS VEGAS      CLOUDY    53  18  25 NW8       29.87S
RATON          PTSUNNY   53  12  19 VRB5      29.82F
CLAYTON        SUNNY     53  34  48 VRB7      29.85F

$$
NMZ532>537-182200-
EASTCENTRAL PLAINS

CITY           SKY/WX    TMP DP  RH WIND       PRES   REMARKS
TUCUMCARI      MOSUNNY   68  26  20 W17G25    29.79F
CANNON AFB     NOT AVBL
CLOVIS AIRPORT PTSUNNY   66  28  24 SW17G32   29.83F

$$
NMZ028-029-538-182200-
SOUTHEAST PLAINS

CITY           SKY/WX    TMP DP  RH WIND       PRES   REMARKS
ROSWELL        MOSUNNY   75  26  16 NW12G20   29.83F
ARTESIA        MOSUNNY   75  25  15 W21G35    29.83F
CARLSBAD       SUNNY     78  18  10 W23G40    29.84F
HOBBS          SUNNY     73  23  15 SW17G29   29.86F


$$


USA.gov is the U.S. government's official web portal to all federal, state and local government web resources and services.